Meteo Giornale » Osservazioni meteo Guadalupa » Le Raizet Guadeloupe

ore: 22:00 - Osservazioni Meteo Le Raizet Guadeloupe
Lat. 16° 16' N Lon. 61° 31' W Alt. 11 metri s.l.m.

poco_nuvoloso

27 °C

Poco Nuvoloso

Temp. 24 Ore

25 °C

32 °C

Est

7.4 Km/h

Dew point 24 °C

Umidità 83 %

Visibilità  10 Km

Il sole sorge alle ore 05:52

Il sole tramonta alle ore 18:19

Data e Ora Cielo e Fenomeni T °C DP °C Um. % Pres. hPa Vis. km Vento km/h
Oggi h: 22:00 poco_nuvoloso Poco Nuvoloso 27 24 83 1016 10 E 7.4
Oggi h: 21:30 sereno Sereno 27 24 83 1016 10 E 7.4
Oggi h: 21:00 sereno Sereno 27 24 83 1016 10 E 7.4
Oggi h: 20:30 poco_nuvoloso Poco Nuvoloso 27 24 83 1015 10 E 7.4
Oggi h: 20:00 poco_nuvoloso Poco Nuvoloso 27 24 83 1015 10 E 7.4
Oggi h: 19:30 poco_nuvoloso Poco Nuvoloso 28 24 78 1015 10 E/SE 7.4
Oggi h: 19:00 molto_nuvoloso Molto Nuvoloso 28 24 78 1014 10 E 7.4
Oggi h: 18:30 molto_nuvoloso Molto Nuvoloso 29 24 74 1014 10 E 13
Oggi h: 18:00 molto_nuvoloso Molto Nuvoloso 29 24 74 1014 10 E 13
Oggi h: 17:30 molto_nuvoloso Molto Nuvoloso 29 24 74 1014 10 E 13
Oggi h: 17:00 nuvoloso Nuvoloso 30 24 70 1014 10 E 14.8
Oggi h: 16:30 molto_nuvoloso Molto Nuvoloso 30 24 70 1014 10 E 18.5
Oggi h: 16:00 molto_nuvoloso Molto Nuvoloso 31 24 66 1014 10 E 18.5
Oggi h: 15:30 nuvoloso Nuvoloso 31 24 66 1014 10 E 16.7
Oggi h: 15:00 molto_nuvoloso Molto Nuvoloso 31 24 66 1014 10 E 18.5
Oggi h: 14:30 molto_nuvoloso Molto Nuvoloso 31 24 66 1014 10 E 18.5
Oggi h: 14:00 molto_nuvoloso Molto Nuvoloso 32 24 62 1014 10 E/SE 20.3
Oggi h: 13:30 molto_nuvoloso Molto Nuvoloso 30 24 70 1014 10 E/SE 20.3
Oggi h: 13:00 molto_nuvoloso Molto Nuvoloso 30 26 79 1015 10 E/SE 18.5
Oggi h: 12:30 molto_nuvoloso Molto Nuvoloso 31 24 66 1015 10 E/SE 14.8
Oggi h: 12:00 molto_nuvoloso Molto Nuvoloso 30 25 74 1015 10 E 20.3
Oggi h: 11:30 molto_nuvoloso Molto Nuvoloso 32 24 62 1015 10 E/SE 16.7
Oggi h: 11:00 molto_nuvoloso Molto Nuvoloso 32 23 59 1016 10 SE 20.3
Oggi h: 10:30 molto_nuvoloso Molto Nuvoloso 31 24 66 1016 10 E 18.5
Oggi h: 10:00 molto_nuvoloso Molto Nuvoloso 31 24 66 1016 10 E 18.5
Oggi h: 09:30 molto_nuvoloso Molto Nuvoloso 30 25 74 1016 10 E/SE 16.7
Oggi h: 09:00 molto_nuvoloso Molto Nuvoloso 31 24 66 1016 10 E 14.8
Oggi h: 08:30 nuvoloso Nuvoloso 30 24 70 1015 10 E 14.8
Oggi h: 08:00 sereno Sereno 29 25 79 1015 10 E 14.8
Oggi h: 07:30 sereno Sereno 28 25 83 1015 10 E 9.3
Oggi h: 07:00 sereno Sereno 26 25 94 1015 10 N 5.5
Oggi h: 06:30 sereno Sereno 25 24 94 1015 10 N 3.7
Oggi h: 06:00 poco_nuvoloso Poco Nuvoloso 25 24 94 1015 10 N 0
Oggi h: 05:30 sereno Sereno 25 24 94 1014 10 N 0
Oggi h: 05:00 sereno Sereno 25 24 94 1014 10 N 3.7
Oggi h: 04:30 sereno Sereno 26 24 88 1014 10 N 3.7
Oggi h: 04:00 sereno Sereno 26 24 88 1014 10 N 1.8
Oggi h: 03:30 sereno Sereno 26 24 88 1015 10 N 0
Oggi h: 03:00 sereno Sereno 26 25 94 1015 10 N 5.5
Oggi h: 02:30 sereno Sereno 26 24 88 1015 10 N 3.7
Oggi h: 02:00 sereno Sereno 26 24 88 1015 10 N 3.7
Oggi h: 01:30 sereno Sereno 26 24 88 1015 10 E/SE 7.4
Oggi h: 01:00 sereno Sereno 26 24 88 1015 10 N 3.7
Oggi h: 00:30 sereno Sereno 26 24 88 1016 10 N 3.7
Oggi h: 00:00 sereno Sereno 26 24 88 1016 10 N 3.7
Ieri h: 23:30 sereno Sereno 26 25 94 1016 10 SE 7.4
Ieri h: 23:00 sereno Sereno 27 25 88 1016 10 N 3.7